Flag for Germany Weather past 2 weeks in Geesthacht, Schleswig-Holstein, Germany

Now
54 °F

Passing clouds.


Feels Like: 49 °F
Forecast: 40 / 42 °F
Wind: 15 mph from West

Location: Hamburg-Fuhlsbuettel

Current Time: Dec 19, 2014 at 3:28:47 AM

Latest Report: Dec 19, 2014 at 2:50 AM


Visibility: 4 mi

Pressure: 29.62 "Hg

Humidity: 94%

Dew point: 52 °F

Location of GeesthachtLocation

Historic Weather in Geesthacht — Graph

°F

Geesthacht temperature yesterday

Maximum temperature yesterday: 54 °F (at 7:20 PM)
Minimum temperature yesterday: 45 °F (at 12:20 AM)
Average temperature yesterday: 50 °F

Past Weeks' High & Low Weather Summary

 TemperatureHumidityPressure
High54 °F (Dec 18, 7:20 PM)100% (Dec 4, 3:20 PM)30.30 "Hg (Dec 4, 3:20 PM)
Low28 °F (Dec 4, 2:20 AM)70% (Dec 10, 4:20 AM)29.18 "Hg (Dec 12, 12:50 PM)
Average39 °F91%29.84 "Hg
* Reported Dec 4 2:20 AM — Dec 19 2:20 AM, Geesthacht, Weather by CustomWeather, © 2014

Note: Actual official high and low records may vary slightly from our data, if they occured in-between our weather recording intervals... More about our weather records

Advertising

Geesthacht weather history for previous 24 hours

 ConditionsComfort  
Time TempWeatherWind HumidityBarometerVisibility
2:20 AM
Dec 19
54 °FPassing clouds.14 mph94%29.62 "Hg4 mi
1:50 AM54 °FPassing clouds.15 mph94%29.62 "Hg4 mi
1:20 AM54 °FPassing clouds.15 mph94%29.62 "Hg4 mi
12:50 AM54 °FPassing clouds.16 mph94%29.62 "Hg4 mi
12:20 AM54 °FPassing clouds.15 mph94%29.62 "Hg4 mi
11:50 PM
Dec 18
54 °FPassing clouds.16 mph94%29.62 "Hg4 mi
11:20 PM54 °FPassing clouds.16 mph94%29.62 "Hg4 mi
10:50 PM54 °FPassing clouds.18 mph94%29.62 "Hg4 mi
10:20 PM54 °FPassing clouds.18 mph94%29.59 "Hg4 mi
9:50 PM54 °FPassing clouds.17 mph94%29.59 "Hg4 mi
9:20 PM54 °FPassing clouds.16 mph94%29.59 "Hg4 mi
8:50 PM54 °FPassing clouds.15 mph94%29.59 "Hg4 mi
8:20 PM54 °FPassing clouds.15 mph94%29.59 "Hg4 mi
7:50 PM54 °FPassing clouds.16 mph94%29.59 "Hg4 mi
7:20 PM54 °FPassing clouds.16 mph94%29.59 "Hg4 mi
6:50 PM52 °FPassing clouds.16 mph100%29.59 "Hg4 mi
6:20 PM52 °FPassing clouds.15 mph100%29.59 "Hg4 mi
5:50 PM52 °FPassing clouds.15 mph100%29.59 "Hg4 mi
5:20 PM52 °FPassing clouds.15 mph100%29.59 "Hg4 mi
4:50 PM52 °FPassing clouds.16 mph94%29.59 "Hg5 mi
4:20 PM52 °FPassing clouds.16 mph94%29.59 "Hg4 mi
3:50 PM52 °FPartly sunny.14 mph94%29.59 "Hg4 mi
3:20 PM52 °FDrizzle. Partly sunny.14 mph94%29.62 "Hg5 mi
2:50 PM52 °FDrizzle. Partly sunny.13 mph94%29.62 "Hg4 mi
2:20 PM52 °FPartly sunny.14 mph94%29.62 "Hg4 mi
1:50 PM52 °FPartly sunny.12 mph94%29.62 "Hg4 mi
1:20 PM52 °FFog.13 mph94%29.65 "Hg3 mi
12:50 PM52 °FFog.13 mph94%29.65 "Hg3 mi
12:20 PM52 °FFog.15 mph94%29.65 "Hg3 mi
11:20 AM50 °FDrizzle. Fog.16 mph100%29.68 "Hg2 mi
10:50 AM50 °FDrizzle. Fog.14 mph100%29.68 "Hg1 mi
10:20 AM50 °FDrizzle. Fog.14 mph100%29.68 "Hg1 mi
9:50 AM50 °FFog.13 mph100%29.68 "Hg2 mi
9:20 AM50 °FDrizzle. Fog.14 mph94%29.68 "Hg1 mi
8:50 AM50 °FDrizzle. Fog.13 mph94%29.68 "Hg1 mi
8:20 AM48 °FDrizzle. Fog.13 mph100%29.68 "Hg2 mi
7:50 AM48 °FDrizzle. Fog.10 mph100%29.68 "Hg1 mi
7:20 AM48 °FDrizzle. Fog.8 mph100%29.68 "Hg1 mi
6:50 AM48 °FFog.9 mph100%29.68 "Hg2 mi
6:20 AM48 °FPassing clouds.10 mph94%29.68 "Hg5 mi
5:50 AM48 °FPassing clouds.12 mph94%29.68 "Hg6 mi
5:20 AM46 °FPassing clouds.12 mph100%29.68 "HgN/A
4:20 AM46 °FPartly cloudy.9 mph93%29.68 "HgN/A
3:50 AM46 °FPartly cloudy.9 mph93%29.68 "HgN/A
3:20 AM46 °FPassing clouds.12 mph93%29.68 "HgN/A
Weather by CustomWeather, © 2014

See weather overviewHow to use our weather pages